When you browse on this site, cookies collect data to enhance your experience and personalize the content and advertising you see.
Visit our Privacy Policy to learn more. By continuing to use the site, you agree to this use of cookies and data.
  • In United Kingdom
  • List of Countries
  • For 7 days
  • Water Temperature
  • Weather Map
  • Weather Widgets
  • user-avatar
    Login

    Hourly Weather Bekescsaba

    Today, 30 March, Monday

    Time Temperature Precipitation Wind Pressure Humidity
    00:00 +8°C° 0 mm 3 mps 750 mmHg 76%
    01:00 +8°C° 0 mm 3 mps 751 mmHg 78%
    02:00 +8°C° 0 mm 3 mps 751 mmHg 78%
    03:00 +7°C° 0 mm 3 mps 751 mmHg 78%
    04:00 +7°C° 0 mm 3 mps 751 mmHg 78%
    05:00 +6°C° 0 mm 4 mps 751 mmHg 79%
    06:00 +6°C° 0 mm 5 mps 752 mmHg 79%
    07:00 +5°C° 0 mm 6 mps 752 mmHg 80%
    08:00 +5°C° 0 mm 6 mps 753 mmHg 78%
    09:00 +4°C° 0 mm 6 mps 753 mmHg 77%
    10:00 +4°C° 0 mm 6 mps 753 mmHg 76%
    11:00 +4°C° 0 mm 6 mps 754 mmHg 71%
    12:00 +5°C° 0 mm 6 mps 754 mmHg 66%
    13:00 +7°C° 0 mm 6 mps 754 mmHg 62%
    14:00 +5°C° 0 mm 6 mps 754 mmHg 59%
    15:00 +5°C° 0 mm 6 mps 754 mmHg 57%
    16:00 +5°C° 0 mm 6 mps 754 mmHg 55%
    17:00 +5°C° 0 mm 5 mps 755 mmHg 55%
    18:00 +3°C° 0 mm 5 mps 755 mmHg 54%
    19:00 +2°C° 0 mm 5 mps 755 mmHg 53%
    20:00 +2°C° 0 mm 5 mps 756 mmHg 53%
    21:00 +1°C° 0 mm 5 mps 756 mmHg 52%
    22:00 -1°C° 0 mm 6 mps 757 mmHg 51%
    23:00 0°C° 0 mm 5 mps 757 mmHg 52%

    Tomorrow, 31 March, Tuesday

    Time Temperature Precipitation Wind Pressure Humidity
    00:00 -1°C° 0 mm 5 mps 757 mmHg 54%
    01:00 -1°C° 0 mm 5 mps 757 mmHg 55%
    02:00 -1°C° 0 mm 4 mps 757 mmHg 55%
    03:00 -2°C° 0 mm 4 mps 757 mmHg 56%
    04:00 -2°C° 0 mm 4 mps 758 mmHg 56%
    05:00 -2°C° 0 mm 5 mps 758 mmHg 55%
    06:00 -1°C° 0 mm 5 mps 758 mmHg 54%
    07:00 -1°C° 0 mm 6 mps 758 mmHg 54%
    08:00 +1°C° 0 mm 6 mps 758 mmHg 50%
    09:00 +2°C° 0 mm 6 mps 758 mmHg 47%
    10:00 +4°C° 0 mm 6 mps 759 mmHg 44%
    11:00 +4°C° 0 mm 6 mps 758 mmHg 42%
    12:00 +5°C° 0 mm 6 mps 758 mmHg 39%
    13:00 +7°C° 0 mm 6 mps 758 mmHg 37%
    14:00 +5°C° 0 mm 6 mps 758 mmHg 36%
    15:00 +5°C° 0 mm 6 mps 757 mmHg 36%
    16:00 +6°C° 0 mm 5 mps 757 mmHg 35%
    17:00 +5°C° 0 mm 5 mps 758 mmHg 40%
    18:00 +3°C° 0 mm 4 mps 758 mmHg 45%
    19:00 +2°C° 0 mm 3 mps 758 mmHg 50%
    20:00 +1°C° 0 mm 3 mps 758 mmHg 50%
    21:00 0°C° 0 mm 4 mps 759 mmHg 51%
    22:00 -1°C° 0 mm 4 mps 759 mmHg 52%
    23:00 -2°C° 0 mm 4 mps 759 mmHg 54%

    Day after tomorrow, 1 April, Wednesday

    Time Temperature Precipitation Wind Pressure Humidity
    00:00 -2°C° 0 mm 4 mps 759 mmHg 56%
    01:00 -2°C° 0 mm 3 mps 759 mmHg 58%
    02:00 -3°C° 0 mm 4 mps 759 mmHg 59%
    03:00 -3°C° 0 mm 4 mps 759 mmHg 60%
    04:00 -3°C° 0 mm 4 mps 759 mmHg 61%
    05:00 -2°C° 0 mm 4 mps 759 mmHg 58%
    06:00 -1°C° 0 mm 4 mps 759 mmHg 55%
    07:00 -1°C° 0 mm 4 mps 759 mmHg 52%
    08:00 +2°C° 0 mm 3 mps 759 mmHg 48%
    09:00 +3°C° 0 mm 3 mps 759 mmHg 44%
    10:00 +5°C° 0 mm 3 mps 759 mmHg 41%
    11:00 +7°C° 0 mm 2 mps 759 mmHg 38%
    12:00 +7°C° 0 mm 2 mps 758 mmHg 35%
    13:00 +9°C° 0 mm 1 mps 758 mmHg 33%
    14:00 +9°C° 0 mm 1 mps 758 mmHg 33%
    15:00 +9°C° 0 mm 1 mps 757 mmHg 33%
    16:00 +9°C° 0 mm 1 mps 757 mmHg 33%
    17:00 +7°C° 0 mm 1 mps 757 mmHg 37%
    18:00 +6°C° 0 mm 1 mps 757 mmHg 41%
    19:00 +5°C° 0 mm 1 mps 757 mmHg 45%
    20:00 +4°C° 0 mm 1 mps 757 mmHg 46%
    21:00 +4°C° 0 mm 1 mps 757 mmHg 46%
    22:00 +2°C° 0 mm 0 mps 757 mmHg 46%
    23:00 +2°C° 0 mm 0 mps 757 mmHg 47%

    2 April, Thursday

    Time Temperature Precipitation Wind Pressure Humidity
    00:00 +1°C° 0 mm 0 mps 757 mmHg 48%
    01:00 +1°C° 0 mm 0 mps 756 mmHg 49%
    02:00 +1°C° 0 mm 0 mps 756 mmHg 50%
    03:00 0°C° 0 mm 0 mps 756 mmHg 51%
    04:00 +1°C° 0 mm 1 mps 756 mmHg 52%
    05:00 +2°C° 0 mm 1 mps 756 mmHg 51%
    06:00 +3°C° 0 mm 1 mps 756 mmHg 50%
    07:00 +4°C° 0 mm 1 mps 756 mmHg 49%
    08:00 +6°C° 0 mm 1 mps 756 mmHg 45%
    09:00 +6°C° 0 mm 2 mps 756 mmHg 40%
    10:00 +8°C° 0 mm 2 mps 756 mmHg 36%
    11:00 +8°C° 0 mm 2 mps 755 mmHg 35%
    12:00 +9°C° 0 mm 2 mps 755 mmHg 34%
    13:00 +10°C° 0 mm 2 mps 755 mmHg 33%
    14:00 +10°C° 0 mm 2 mps 754 mmHg 33%
    15:00 +10°C° 0 mm 2 mps 754 mmHg 34%
    16:00 +11°C° 0 mm 1 mps 753 mmHg 34%
    17:00 +9°C° 0 mm 1 mps 753 mmHg 38%
    18:00 +8°C° 0 mm 1 mps 753 mmHg 41%
    19:00 +6°C° 0 mm 1 mps 753 mmHg 45%
    20:00 +6°C° 0 mm 1 mps 753 mmHg 47%
    21:00 +4°C° 0 mm 2 mps 753 mmHg 49%
    22:00 +4°C° 0 mm 2 mps 753 mmHg 51%
    23:00 +4°C° 0 mm 2 mps 753 mmHg 54%

    3 April, Friday

    Time Temperature Precipitation Wind Pressure Humidity
    00:00 +3°C° 0 mm 2 mps 753 mmHg 57%
    01:00 +3°C° 0 mm 2 mps 753 mmHg 60%
    02:00 +2°C° 0 mm 2 mps 752 mmHg 64%
    03:00 +2°C° 0 mm 2 mps 752 mmHg 67%
    04:00 +2°C° 0 mm 2 mps 752 mmHg 70%
    05:00 +3°C° 0 mm 2 mps 752 mmHg 69%
    06:00 +3°C° 0 mm 3 mps 752 mmHg 68%
    07:00 +4°C° 0 mm 3 mps 753 mmHg 67%
    08:00 +7°C° 0 mm 3 mps 753 mmHg 62%
    09:00 +8°C° 0 mm 4 mps 753 mmHg 57%
    10:00 +11°C° 0 mm 4 mps 752 mmHg 52%
    11:00 +12°C° 0 mm 4 mps 752 mmHg 50%
    12:00 +13°C° 0 mm 4 mps 752 mmHg 47%
    13:00 +13°C° 0 mm 4 mps 752 mmHg 44%
    14:00 +13°C° 0 mm 4 mps 752 mmHg 47%
    15:00 +13°C° 0 mm 4 mps 752 mmHg 50%
    16:00 +13°C° 0 mm 4 mps 752 mmHg 52%
    17:00 +11°C° 0 mm 4 mps 752 mmHg 57%
    18:00 +10°C° 0 mm 3 mps 753 mmHg 63%
    19:00 +8°C° 0 mm 3 mps 753 mmHg 68%
    20:00 +7°C° 0 mm 3 mps 754 mmHg 69%
    21:00 +7°C° 0 mm 3 mps 755 mmHg 71%
    22:00 +5°C° 0 mm 4 mps 756 mmHg 73%
    23:00 +5°C° 0 mm 3 mps 756 mmHg 74%

    4 April, Saturday

    Time Temperature Precipitation Wind Pressure Humidity
    00:00 +4°C° 0 mm 3 mps 757 mmHg 76%
    01:00 +4°C° 0 mm 2 mps 757 mmHg 78%
    02:00 +4°C° 0 mm 2 mps 758 mmHg 77%
    03:00 +3°C° 0 mm 2 mps 758 mmHg 77%
    04:00 +4°C° 0 mm 1 mps 759 mmHg 77%
    05:00 +4°C° 0 mm 2 mps 760 mmHg 74%
    06:00 +4°C° 0 mm 2 mps 760 mmHg 70%
    07:00 +4°C° 0 mm 3 mps 761 mmHg 67%
    08:00 +5°C° 0 mm 3 mps 762 mmHg 58%
    09:00 +7°C° 0 mm 4 mps 762 mmHg 48%
    10:00 +8°C° 0 mm 4 mps 762 mmHg 39%
    11:00 +8°C° 0 mm 4 mps 763 mmHg 38%
    12:00 +10°C° 0 mm 4 mps 763 mmHg 38%
    13:00 +11°C° 0 mm 4 mps 763 mmHg 37%
    14:00 +10°C° 0 mm 4 mps 763 mmHg 38%
    15:00 +10°C° 0 mm 3 mps 763 mmHg 39%
    16:00 +10°C° 0 mm 3 mps 763 mmHg 39%
    17:00 +9°C° 0 mm 3 mps 763 mmHg 42%
    18:00 +7°C° 0 mm 2 mps 764 mmHg 45%
    19:00 +6°C° 0 mm 2 mps 764 mmHg 48%
    20:00 +5°C° 0 mm 2 mps 765 mmHg 48%
    21:00 +5°C° 0 mm 2 mps 765 mmHg 47%
    22:00 +4°C° 0 mm 2 mps 766 mmHg 47%
    23:00 +4°C° 0 mm 2 mps 766 mmHg 47%
    Show more